Погода в Томарино

Украина / Херсонская область     46°52′28″N   33°18′15″E
темп.,
°C
ветер,
м/с
пор.,
м/с
влажн.,
%
обл.,
%
осадки,
мм/ч
давл.,
гПа
погр.,
м
7 мая, пт
пт700:00+11сз2388100 0.0 101374
03:00+10ссз3690100 0.0 1014186
06:00+9с239096 0.0 101652
09:00+15всв33585 0.0 1017587
12:00+19юв33405 0.0 10161421
15:00+22ю4537100 0.0 10142082
18:00+20ююз574481 0.0 10131116
21:00+14ююв4107533 0.0 1013232
8 мая, сб
сб800:00+13ю4117690 0.0 1012284
03:00+14ююз4137398 0.0 1011429
06:00+14ююз41379100 0.0 1011464
09:00+17зюз61270100 0.1 1011712
12:00+16зсз6681100 0.5 1012730
15:00+13сз61089100 2.8 1014769
18:00+11ссз4986100 1.9 1014688
21:00+10св2574100 2.7 1016143
9 мая, вс
вс900:00+8ссз71276100 0.0 1017764
03:00+7ссз51278100 0.0 1020421
06:00+5сз5138277 0.0 1021428
09:00+10ссз79611 0.0 1023955
12:00+14ссз68425 0.0 10241924
15:00+16с783398 0.0 10242856
18:00+16с584023 0.0 10252774
21:00+10с37615 0.0 1027111
10 мая, пн
пн1000:00+8с33675 0.0 102846
03:00+7ссз34715 0.0 102858
06:00+6с36755 0.0 1028120
09:00+13ссв574757 0.0 10281046
12:00+16с67350 0.0 10272082
15:00+17с68335 0.0 10262148
18:00+17ссв68405 0.0 10242022
21:00+11с475485 0.0 1027114
11 мая, вт
вт1100:00+13с51153100 0.0 1023680
03:00+12с61155100 0.0 1021579
06:00+12с6126288 0.0 1020537
09:00+15ссв796181 0.0 1020646
12:00+17ссв796440 0.0 1019949
15:00+18ссв7106392 0.1 10181420
18:00+14св697784 0.3 1018984
21:00+11св498610 0.4 1018269